Regional Weather Roundup
Issued by NWS

Home | Current Version | Previous Version | Text Only | Print | Product List | Glossary On
Versions: 1 2 3 4 5 6 7 8 9 10 11 12 13 14 15 16 17 18 19 20 21 22 23 24 25 26 27
000
ASCA42 TJSJ 281410
RWRPR
PUERTO RICO/U.S. VIRGIN ISLANDS HOURLY WEATHER ROUNDUP
NATIONAL WEATHER SERVICE SAN JUAN PR
1000 AM AST TUE FEB 28 2017

PRZ001>002-007>008-010-281500-
PUERTO RICO

CITY           SKY/WX    TMP DP  RH WIND       PRES   REMARKS
SAN JUAN LMM   MOSUNNY   81  72  74 E17       30.14R
AGUADILLA      PTSUNNY   79  70  73 E15G21    30.15R
CEIBA          SUNNY     84  72  65 NE10      30.16R
$$

VIZ001>002-281500-
U.S. VIRGIN ISLANDS

CITY           SKY/WX    TMP DP  RH WIND       PRES   REMARKS
CHARLOTTE AMA  MOSUNNY   82  72  69 E16       30.13R
CHRISTIANSTED  MOSUNNY   79  72  78 NE14G22   30.13R
$$

HOURLY WEATHER ROUNDUP FOR THE NEWS MEDIA

CITY           SKY/WX    TMP DP  RH WIND       PRES   REMARKS
ORLANDO        MOSUNNY   72  70  93 S5        30.30R
NEW YORK       CLOUDY    50  44  80 E6        30.36F
NEWARK         CLOUDY    50  37  61 E7        30.35F
CHICAGO        CLOUDY    52  47  83 S12       29.82R
HARTFORD       CLOUDY    46  40  79 CALM      30.41S
BOSTON         CLOUDY    43  35  73 S6        30.42R
DALLAS         CLOUDY    71  65  81 S9        29.91R HAZE
PHILADELPHIA   MOSUNNY   51  37  58 E7        30.33F
LOS ANGELES    PTCLDY    51  33  50 N6        29.97R
WASHINGTON DC  MOSUNNY   51  36  56 CALM      30.30S



USA.gov is the U.S. government's official web portal to all federal, state and local government web resources and services.